Location: Ciserano
(45.5833°N, 9.6000°E)
Time: 04:39:21
(UTC+00:00)

Meteor 1-4 Rocket - Pass Details

Date: 29 November 2020
Orbit: 449 x 500 km, 81.2° (Epoch: 24 January)

Event Time Altitude Azimuth Distance (km) Brightness Sun altitude
Exits shadow 04:47:57 17° 205° (SSW) 1,197 4.4 -19.0°
Drops below altitude 10° 04:48:58 10° 197° (SSW) 1,577 5.1 -18.8°
Sets 04:51:06 0° 189° (S) 2,446 6.2 -18.4°
